Time,TemperatureF,DewpointF,PressureIn,WindDirection,WindDirectionDegrees,WindSpeedMPH,WindSpeedGustMPH,Humidity,HourlyPrecipIn,Conditions,Clouds,dailyrainin,SoftwareType,DateUTC
2015-09-02 00:03:00,62.0,60.0,30.07,West,272,0.0,0.0,92,-99.99,,,-99.99,,2015-09-02 04:03:00,
2015-09-02 00:13:00,62.0,60.0,30.07,West,272,0.0,0.0,92,-99.99,,,-99.99,,2015-09-02 04:13:00,
2015-09-02 00:23:00,62.0,60.0,30.07,West,272,0.0,0.0,92,-99.99,,,-99.99,,2015-09-02 04:23:00,
2015-09-02 00:33:00,62.0,60.0,30.07,West,272,0.0,0.0,92,-99.99,,,-99.99,,2015-09-02 04:33:00,
2015-09-02 00:44:00,61.0,59.0,30.06,West,272,0.0,0.0,93,-99.99,,,-99.99,,2015-09-02 04:44:00,
2015-09-02 00:56:00,62.0,61.0,30.06,West,274,0.0,0.0,95,-99.99,,,-99.99,,2015-09-02 04:56:00,
2015-09-02 01:04:00,62.0,61.0,30.06,West,274,0.0,0.0,95,-99.99,,,-99.99,,2015-09-02 05:04:00,
2015-09-02 01:14:00,61.0,59.0,30.06,West,274,0.0,0.0,94,-99.99,,,-99.99,,2015-09-02 05:14:00,
2015-09-02 01:23:00,61.0,60.0,30.06,West,274,0.0,0.0,95,-99.99,,,-99.99,,2015-09-02 05:23:00,
2015-09-02 01:36:00,61.0,60.0,30.06,West,274,0.0,0.0,96,-99.99,,,-99.99,,2015-09-02 05:36:00,
2015-09-02 01:44:00,61.0,60.0,30.06,West,274,0.0,0.0,96,-99.99,,,-99.99,,2015-09-02 05:44:00,
2015-09-02 01:53:00,61.0,60.0,30.06,West,274,0.0,0.0,96,-99.99,,,-99.99,,2015-09-02 05:53:00,
2015-09-02 02:04:00,61.0,60.0,30.06,West,274,0.0,0.0,96,-99.99,,,-99.99,,2015-09-02 06:04:00,
2015-09-02 02:13:00,61.0,60.0,30.05,West,274,0.0,0.0,96,-99.99,,,-99.99,,2015-09-02 06:13:00,
2015-09-02 02:23:00,61.0,60.0,30.05,West,274,0.0,0.0,97,-99.99,,,-99.99,,2015-09-02 06:23:00,
2015-09-02 02:33:00,61.0,60.0,30.05,West,272,0.0,1.0,98,-99.99,,,-99.99,,2015-09-02 06:33:00,
2015-09-02 02:43:00,62.0,61.0,30.05,West,272,0.0,0.0,98,-99.99,,,-99.99,,2015-09-02 06:43:00,
2015-09-02 02:53:00,62.0,61.0,30.05,WSW,245,0.0,2.0,97,-99.99,,,-99.99,,2015-09-02 06:53:00,
2015-09-02 03:03:00,62.0,61.0,30.04,West,269,0.0,1.0,98,-99.99,,,-99.99,,2015-09-02 07:03:00,
2015-09-02 03:13:00,61.0,60.0,30.05,SW,221,0.0,1.0,97,-99.99,,,-99.99,,2015-09-02 07:13:00,
2015-09-02 03:23:00,61.0,60.0,30.05,SW,220,0.0,0.0,97,-99.99,,,-99.99,,2015-09-02 07:23:00,
2015-09-02 03:33:00,61.0,60.0,30.04,SW,223,0.0,1.0,98,-99.99,,,-99.99,,2015-09-02 07:33:00,
2015-09-02 03:44:00,61.0,60.0,30.04,SSE,148,0.0,0.0,97,-99.99,,,-99.99,,2015-09-02 07:44:00,
2015-09-02 03:53:00,60.0,59.0,30.04,SSE,148,0.0,0.0,97,-99.99,,,-99.99,,2015-09-02 07:53:00,
2015-09-02 04:03:00,60.0,59.0,30.04,SE,145,0.0,0.0,97,-99.99,,,-99.99,,2015-09-02 08:03:00,
2015-09-02 04:13:00,60.0,59.0,30.04,SE,145,0.0,0.0,98,-99.99,,,-99.99,,2015-09-02 08:13:00,
2015-09-02 04:23:00,60.0,59.0,30.03,SE,140,0.0,1.0,98,-99.99,,,-99.99,,2015-09-02 08:23:00,
2015-09-02 04:33:00,60.0,59.0,30.03,South,175,0.0,0.0,98,-99.99,,,-99.99,,2015-09-02 08:33:00,
2015-09-02 04:43:00,60.0,59.0,30.03,South,175,0.0,0.0,98,-99.99,,,-99.99,,2015-09-02 08:43:00,
2015-09-02 04:53:00,59.0,58.0,30.03,South,175,0.0,0.0,98,-99.99,,,-99.99,,2015-09-02 08:53:00,
2015-09-02 05:03:00,59.0,58.0,30.03,South,175,0.0,0.0,98,-99.99,,,-99.99,,2015-09-02 09:03:00,
2015-09-02 05:13:00,59.0,58.0,30.02,South,175,0.0,0.0,97,-99.99,,,-99.99,,2015-09-02 09:13:00,
2015-09-02 05:23:00,58.0,57.0,30.03,South,175,0.0,0.0,98,-99.99,,,-99.99,,2015-09-02 09:23:00,
2015-09-02 05:33:00,59.0,58.0,30.02,South,175,0.0,0.0,98,-99.99,,,-99.99,,2015-09-02 09:33:00,
2015-09-02 05:44:00,59.0,59.0,30.02,South,175,0.0,0.0,99,-99.99,,,-99.99,,2015-09-02 09:44:00,
2015-09-02 05:53:00,59.0,58.0,30.03,South,175,0.0,0.0,98,-99.99,,,-99.99,,2015-09-02 09:53:00,
2015-09-02 06:03:00,59.0,59.0,30.03,WSW,244,0.0,0.0,99,-99.99,,,-99.99,,2015-09-02 10:03:00,
2015-09-02 06:13:00,60.0,60.0,30.03,SSW,193,0.0,1.0,99,-99.99,,,-99.99,,2015-09-02 10:13:00,
2015-09-02 06:24:00,60.0,60.0,30.03,South,183,0.0,0.0,99,-99.99,,,-99.99,,2015-09-02 10:24:00,
2015-09-02 06:33:00,60.0,60.0,30.03,South,183,0.0,0.0,99,-99.99,,,-99.99,,2015-09-02 10:33:00,
2015-09-02 06:44:00,59.0,59.0,30.03,South,183,0.0,0.0,99,-99.99,,,-99.99,,2015-09-02 10:44:00,
2015-09-02 06:53:00,60.0,60.0,30.03,SE,128,0.0,0.0,99,-99.99,,,-99.99,,2015-09-02 10:53:00,
2015-09-02 07:03:00,60.0,60.0,30.03,SSE,162,0.0,0.0,99,-99.99,,,-99.99,,2015-09-02 11:03:00,
2015-09-02 07:13:00,60.0,60.0,30.03,SSE,161,0.0,0.0,99,-99.99,,,-99.99,,2015-09-02 11:13:00,
2015-09-02 07:24:00,60.0,60.0,30.03,SSW,193,0.0,0.0,99,-99.99,,,-99.99,,2015-09-02 11:24:00,
2015-09-02 07:34:00,60.0,60.0,30.03,SSW,193,0.0,0.0,99,-99.99,,,-99.99,,2015-09-02 11:34:00,
2015-09-02 07:44:00,60.0,60.0,30.03,SSW,193,0.0,0.0,99,-99.99,,,-99.99,,2015-09-02 11:44:00,
2015-09-02 07:54:00,60.0,60.0,30.03,South,190,0.0,0.0,99,-99.99,,,-99.99,,2015-09-02 11:54:00,
2015-09-02 08:04:00,60.0,60.0,30.03,SSW,203,0.0,1.0,99,-99.99,,,-99.99,,2015-09-02 12:04:00,
2015-09-02 08:13:00,61.0,61.0,30.03,SSW,200,0.0,1.0,99,-99.99,,,-99.99,,2015-09-02 12:13:00,
2015-09-02 08:24:00,61.0,61.0,30.03,SSW,207,0.0,1.0,99,-99.99,,,-99.99,,2015-09-02 12:24:00,
2015-09-02 08:34:00,61.0,61.0,30.03,SSE,168,0.0,3.0,99,-99.99,,,-99.99,,2015-09-02 12:34:00,
2015-09-02 08:44:00,62.0,62.0,30.03,South,180,1.0,2.0,99,-99.99,,,-99.99,,2015-09-02 12:44:00,
2015-09-02 08:54:00,62.0,62.0,30.03,SW,221,0.0,3.0,99,-99.99,,,-99.99,,2015-09-02 12:54:00,
2015-09-02 09:04:00,63.0,62.0,30.03,SSE,165,0.0,1.0,98,-99.99,,,-99.99,,2015-09-02 13:04:00,
2015-09-02 09:13:00,63.0,62.0,30.03,SSW,199,1.0,4.0,96,-99.99,,,-99.99,,2015-09-02 13:13:00,
2015-09-02 09:23:00,64.0,63.0,30.03,SE,137,0.0,3.0,95,-99.99,,,-99.99,,2015-09-02 13:23:00,
2015-09-02 09:34:00,65.0,64.0,30.02,SW,220,0.0,2.0,95,-99.99,,,-99.99,,2015-09-02 13:34:00,
2015-09-02 09:43:00,66.0,64.0,30.02,South,171,0.0,1.0,92,-99.99,,,-99.99,,2015-09-02 13:43:00,
2015-09-02 09:53:00,68.0,65.0,30.02,SSW,200,0.0,0.0,89,-99.99,,,-99.99,,2015-09-02 13:53:00,
2015-09-02 10:03:00,69.0,65.0,30.02,SE,140,0.0,1.0,88,-99.99,,,-99.99,,2015-09-02 14:03:00,
2015-09-02 10:13:00,69.0,65.0,30.02,WNW,299,1.0,2.0,86,-99.99,,,-99.99,,2015-09-02 14:13:00,
2015-09-02 10:23:00,70.0,65.0,30.02,WSW,250,0.0,3.0,85,-99.99,,,-99.99,,2015-09-02 14:23:00,
2015-09-02 10:33:00,71.0,66.0,30.02,SSE,159,1.0,2.0,84,-99.99,,,-99.99,,2015-09-02 14:33:00,
2015-09-02 10:44:00,72.0,66.0,30.01,SSW,207,0.0,3.0,82,-99.99,,,-99.99,,2015-09-02 14:44:00,
2015-09-02 10:53:00,73.0,67.0,30.02,SE,124,0.0,2.0,81,-99.99,,,-99.99,,2015-09-02 14:53:00,
2015-09-02 11:03:00,73.0,67.0,30.02,SSW,202,0.0,4.0,81,-99.99,,,-99.99,,2015-09-02 15:03:00,
2015-09-02 11:13:00,73.0,66.0,30.02,SW,216,2.0,4.0,79,-99.99,,,-99.99,,2015-09-02 15:13:00,
2015-09-02 11:33:00,74.0,66.0,30.01,NW,305,0.0,5.0,77,-99.99,,,-99.99,,2015-09-02 15:33:00,
2015-09-02 11:43:00,75.0,68.0,30.01,SSW,209,1.0,4.0,78,-99.99,,,-99.99,,2015-09-02 15:43:00,
2015-09-02 11:53:00,75.0,67.0,30.01,SSW,193,1.0,4.0,75,-99.99,,,-99.99,,2015-09-02 15:53:00,
2015-09-02 12:03:00,76.0,67.0,30.01,SSW,197,0.0,5.0,74,-99.99,,,-99.99,,2015-09-02 16:03:00,
2015-09-02 12:13:00,77.0,68.0,30.00,North,6,0.0,5.0,74,-99.99,,,-99.99,,2015-09-02 16:13:00,
2015-09-02 12:26:00,78.0,68.0,30.00,NW,320,0.0,-999.0,72,-99.99,,,-99.99,,2015-09-02 16:26:00,
2015-09-02 12:33:00,78.0,67.0,30.00,NW,313,1.0,4.0,70,-99.99,,,-99.99,,2015-09-02 16:33:00,
2015-09-02 12:44:00,79.0,66.0,29.99,West,261,0.0,7.0,65,-99.99,,,-99.99,,2015-09-02 16:44:00,
2015-09-02 12:54:00,79.0,66.0,29.99,WNW,298,0.0,4.0,65,-99.99,,,-99.99,,2015-09-02 16:54:00,
2015-09-02 13:03:00,80.0,68.0,29.98,SSW,209,1.0,3.0,66,-99.99,,,-99.99,,2015-09-02 17:03:00,
2015-09-02 13:13:00,80.0,65.0,29.98,SW,214,1.0,4.0,61,-99.99,,,-99.99,,2015-09-02 17:13:00,
2015-09-02 13:24:00,80.0,65.0,29.98,North,351,1.0,3.0,61,-99.99,,,-99.99,,2015-09-02 17:24:00,
2015-09-02 13:34:00,81.0,68.0,29.98,West,261,0.0,3.0,65,-99.99,,,-99.99,,2015-09-02 17:34:00,
2015-09-02 13:44:00,81.0,66.0,29.97,NNW,337,0.0,2.0,61,-99.99,,,-99.99,,2015-09-02 17:44:00,
2015-09-02 13:54:00,82.0,66.0,29.98,WNW,290,0.0,2.0,59,-99.99,,,-99.99,,2015-09-02 17:54:00,
2015-09-02 14:13:00,82.0,66.0,29.97,East,86,1.0,5.0,59,-99.99,,,-99.99,,2015-09-02 18:13:00,
2015-09-02 14:24:00,82.0,67.0,29.97,SSW,212,1.0,3.0,60,-99.99,,,-99.99,,2015-09-02 18:24:00,
2015-09-02 14:34:00,82.0,66.0,29.97,WNW,302,1.0,4.0,58,-99.99,,,-99.99,,2015-09-02 18:34:00,
2015-09-02 14:44:00,81.0,65.0,29.97,WNW,283,1.0,5.0,58,-99.99,,,-99.99,,2015-09-02 18:44:00,
2015-09-02 15:04:00,82.0,68.0,29.97,South,176,0.0,3.0,62,-99.99,,,-99.99,,2015-09-02 19:04:00,
2015-09-02 15:13:00,82.0,68.0,29.96,NW,313,2.0,6.0,62,-99.99,,,-99.99,,2015-09-02 19:13:00,
2015-09-02 15:24:00,82.0,67.0,29.96,WNW,300,0.0,4.0,60,-99.99,,,-99.99,,2015-09-02 19:24:00,
2015-09-02 15:34:00,83.0,69.0,29.96,SW,228,0.0,3.0,62,-99.99,,,-99.99,,2015-09-02 19:34:00,
2015-09-02 15:44:00,82.0,68.0,29.95,NW,316,0.0,3.0,62,-99.99,,,-99.99,,2015-09-02 19:44:00,
2015-09-02 15:54:00,82.0,67.0,29.95,WNW,299,1.0,4.0,61,-99.99,,,-99.99,,2015-09-02 19:54:00,
2015-09-02 16:04:00,82.0,69.0,29.95,NW,309,0.0,5.0,64,-99.99,,,-99.99,,2015-09-02 20:04:00,
2015-09-02 16:13:00,82.0,69.0,29.94,WNW,292,1.0,4.0,64,-99.99,,,-99.99,,2015-09-02 20:13:00,
2015-09-02 16:24:00,82.0,68.0,29.94,NNW,344,0.0,4.0,62,-99.99,,,-99.99,,2015-09-02 20:24:00,
2015-09-02 16:33:00,82.0,68.0,29.94,NW,319,0.0,3.0,62,-99.99,,,-99.99,,2015-09-02 20:33:00,
2015-09-02 16:43:00,82.0,69.0,29.94,WNW,296,0.0,3.0,65,-99.99,,,-99.99,,2015-09-02 20:43:00,
2015-09-02 16:53:00,82.0,68.0,29.93,NW,312,0.0,3.0,63,-99.99,,,-99.99,,2015-09-02 20:53:00,
2015-09-02 17:03:00,82.0,69.0,29.93,SE,145,0.0,3.0,64,-99.99,,,-99.99,,2015-09-02 21:03:00,
2015-09-02 17:13:00,83.0,69.0,29.93,South,185,0.0,1.0,62,-99.99,,,-99.99,,2015-09-02 21:13:00,
2015-09-02 17:23:00,83.0,70.0,29.93,SSE,165,0.0,1.0,65,-99.99,,,-99.99,,2015-09-02 21:23:00,
2015-09-02 17:34:00,83.0,69.0,29.93,SW,217,0.0,2.0,63,-99.99,,,-99.99,,2015-09-02 21:34:00,
2015-09-02 17:44:00,82.0,69.0,29.93,SE,141,0.0,3.0,64,-99.99,,,-99.99,,2015-09-02 21:44:00,
2015-09-02 17:53:00,81.0,69.0,29.93,SE,130,0.0,1.0,67,-99.99,,,-99.99,,2015-09-02 21:53:00,
2015-09-02 18:03:00,80.0,69.0,29.93,South,185,0.0,0.0,69,-99.99,,,-99.99,,2015-09-02 22:03:00,
2015-09-02 18:13:00,80.0,69.0,29.92,SSE,149,0.0,0.0,69,-99.99,,,-99.99,,2015-09-02 22:13:00,
2015-09-02 18:23:00,79.0,69.0,29.92,SSE,149,0.0,0.0,71,-99.99,,,-99.99,,2015-09-02 22:23:00,
2015-09-02 18:33:00,78.0,69.0,29.92,SSE,152,0.0,0.0,73,-99.99,,,-99.99,,2015-09-02 22:33:00,
2015-09-02 18:43:00,77.0,68.0,29.92,SSE,162,0.0,0.0,73,-99.99,,,-99.99,,2015-09-02 22:43:00,
2015-09-02 18:53:00,76.0,68.0,29.91,SSE,162,0.0,0.0,76,-99.99,,,-99.99,,2015-09-02 22:53:00,
2015-09-02 19:03:00,75.0,68.0,29.91,SSE,162,0.0,0.0,78,-99.99,,,-99.99,,2015-09-02 23:03:00,
2015-09-02 19:13:00,74.0,67.0,29.91,SSE,162,0.0,0.0,80,-99.99,,,-99.99,,2015-09-02 23:13:00,
2015-09-02 19:34:00,73.0,68.0,29.91,SSE,162,0.0,0.0,83,-99.99,,,-99.99,,2015-09-02 23:34:00,
2015-09-02 19:43:00,73.0,68.0,29.91,SSE,162,0.0,0.0,83,-99.99,,,-99.99,,2015-09-02 23:43:00,